Southern Junior High School, Massachusetts, United States
Lat: 42.38N, Lon: 71.1W
Wx Zone: MAZ014
Local Info
Past Weather Observations for Today

NOTE: This archive is for the closest National Weather Service station to Southern Junior High School. Information may differ from the station used for current weather conditions.

Click here for Long-term Archive

Time Weather Temperature Dewpoint Humidity Pressure Winds Precip Visibility
20:54
Overcast
70°F / 21°C 68°F / 20°C 94% 29.59 in
(1002 mb)
Calm 0.01 in
(0.25 mm)
10SM
19:59
Overcast
Light Rain
70°F / 21°C 68°F / 20°C 94% 29.59 in
(1002 mb)
SW 5.8 mph
(SW 9 kph)
0.01 in
(0.25 mm)
6SM
19:54
Overcast
Light Rain
70°F / 21°C 66°F / 19°C 88% 29.59 in
(1002 mb)
SW 6.9 mph
(SW 11 kph)
0.00 in
(0.00 mm)
5SM
19:35
Overcast
66°F / 19°C 66°F / 19°C 100% 29.59 in
(1002 mb)
SSE 4.6 mph
(SSE 7 kph)
- 10SM
19:09
Overcast
66°F / 19°C 64°F / 18°C 94% 29.62 in
(1003 mb)
ENE 3.5 mph
(ENE 6 kph)
- 9SM
18:54
Mostly Cloudy
66°F / 19°C 64°F / 18°C 94% 29.62 in
(1003 mb)
E 4.6 mph
(E 7 kph)
- 10SM
17:54
Mostly Cloudy
68°F / 20°C 64°F / 18°C 88% 29.62 in
(1003 mb)
SE 8.1 mph
(SE 13 kph)
- 10SM
16:54
Overcast
68°F / 20°C 64°F / 18°C 88% 29.65 in
(1004 mb)
ESE 10.4 mph
(ESE 17 kph)
- 10SM
15:54
Overcast
70°F / 21°C 66°F / 19°C 88% 29.68 in
(1005 mb)
E 9.2 mph
(E 15 kph)
- 10SM
14:54
Overcast
72°F / 22°C 64°F / 18°C 78% 29.71 in
(1006 mb)
ENE 6.9 mph
(ENE 11 kph)
- 9SM
13:54
Overcast
79°F / 26°C 66°F / 19°C 65% 29.74 in
(1007 mb)
SSE 9.2 mph
(SSE 15 kph)
- 10SM
12:54
Overcast
79°F / 26°C 66°F / 19°C 65% 29.77 in
(1008 mb)
SSE 12.7 mph
(SSE 20 kph)
- 10SM
11:54
Mostly Cloudy
81°F / 27°C 66°F / 19°C 62% 29.8 in
(1009 mb)
S 16.1 mph
(S 26 kph)
- 10SM
10:54
Mostly Cloudy
81°F / 27°C 66°F / 19°C 62% 29.86 in
(1011 mb)
S 13.8 mph
(S 22 kph)
- 10SM
09:54
Mostly Cloudy
79°F / 26°C 66°F / 19°C 65% 29.89 in
(1012 mb)
S 10.4 mph
(S 17 kph)
- 10SM
08:54
Mostly Cloudy
75°F / 24°C 66°F / 19°C 74% 29.92 in
(1013 mb)
S 9.2 mph
(S 15 kph)
- 10SM
07:54
Mostly Cloudy
72°F / 22°C 64°F / 18°C 78% 29.95 in
(1014 mb)
S 11.5 mph
(S 19 kph)
- 10SM
06:54
Mostly Cloudy
70°F / 21°C 64°F / 18°C 83% 29.95 in
(1014 mb)
S 6.9 mph
(S 11 kph)
- 10SM
05:54
Mostly Cloudy
64°F / 18°C 61°F / 16°C 88% 29.98 in
(1015 mb)
Calm - 10SM
04:54
Overcast
64°F / 18°C 61°F / 16°C 88% 29.98 in
(1015 mb)
ENE 3.5 mph
(ENE 6 kph)
- 10SM
03:54
Overcast
64°F / 18°C 61°F / 16°C 88% 29.98 in
(1015 mb)
SSE 3.5 mph
(SSE 6 kph)
- 10SM
02:54
Overcast
63°F / 17°C 61°F / 16°C 94% 30.01 in
(1016 mb)
S 4.6 mph
(S 7 kph)
- 10SM
01:54
Overcast
63°F / 17°C 59°F / 15°C 88% 30.04 in
(1017 mb)
SSE 5.8 mph
(SSE 9 kph)
- 10SM
00:54
Overcast
63°F / 17°C 57°F / 14°C 83% 30.06 in
(1018 mb)
SSE 8.1 mph
(SSE 13 kph)
- 10SM
Time Weather Temperature Dewpoint Humidity Pressure Winds Precip Visibility


Weather for websites

WeatherForYou.com, LLC is not responsible for any damages or problems caused by this service. Current weather conditions are obtained from the closest station including government and personal stations which may have varying degrees of accuracy. Weather forecasts are derived from the NOAA NDFD. Like all things, this site belongs to Jesus Christ... He just trusts me to maintain it. If you have any questions or comments email webmaster@weatherforyou.com

Copyright © 2014, WeatherForYou.com LLC. All rights reserved.